Regional Weather Roundup
Issued by NWS Sterling, VA

Home | Current Version | Previous Version | Text Only | Print | Product List | Glossary On
Versions: 1 2 3 4 5 6 7 8 9 10 11 12 13 14 15 16 17 18 19 20 21 22 23 24 25 26 27 28 29 30 31 32 33 34 35 36 37 38 39 40 41 42 43 44 45 46 47 48 49 50
000
ASUS41 KLWX 230110
RWRLWX

REGIONAL WEATHER ROUNDUP
NATIONAL WEATHER SERVICE BALTIMORE MD/WASHINGTON DC
800 PM EST MON DEC 22 2014

Note: "FAIR" indicates few or no clouds below 12,000 feet
with no significant weather and/or obstructions to visibility.
 TC=TEMPERATURE CELSIUS

 * =Non NWS site. Station does not report precipitation (e.g. rain,
    snow, etc.), thunder, or fog.

DCZ001-MDZ009-015-VAZ040>042-051-053>054-230200-
WASHINGTON METRO

CITY           SKY/WX    TMP DP  RH WIND       PRES   REMARKS
WASHINGTON NAT LGT RAIN  38  33  82 N13       30.18S
DULLES         LGT RAIN  32  31  96 N9        30.16F FOG     WCI  24
FT BELVOIR     CLOUDY    36  32  87 N3        30.16F
QUANTICO       CLOUDY    36  32  85 NE7       30.16F
COLLEGE PARK*  CLOUDY    36  36 100 CALM      30.18R
LEESBURG*      MIX PCPN  34  34 100 N5        30.18F
GAITHERSBURG*  CLOUDY    34  30  86 N3        30.19S

$$

MDZ006>007-011-014-230200-
BALTIMORE METRO

CITY           SKY/WX    TMP DP  RH WIND       PRES   REMARKS
BWI AIRPORT    LGT RAIN  36  34  92 W7        30.17R FOG
MD SCIENCE CTR   N/A     37  35  92 MISG      30.15S
MARTIN STATE   DRIZZLE   39  37  93 NW3       30.17S
ANNAPOLIS      LGT RAIN  38  35  89 NW8       30.16R FOG
FORT MEADE*    MOCLDY    34  34 100 CALM      30.20R VSB 1

$$

MDZ012-015-019>023-230200-
MARYLAND EASTERN SHORE

CITY           SKY/WX    TMP DP  RH WIND       PRES   REMARKS
OCEAN CITY     CLOUDY    49  46  90 E12       30.09F
SALISBURY      CLOUDY    47  43  86 NE8       30.08F
BAY BRIDGE AP*   N/A     37  37 100 N5        30.16R FOG
CAMBRIDGE*     CLOUDY    41  37  87 N6        30.11S
EASTON*        CLOUDY    39  39 100 N7        30.16F FOG

$$

MDZ017>025-230200-
SOUTHERN MARYLAND

CITY           SKY/WX    TMP DP  RH WIND       PRES   REMARKS
PATUXENT RIVER LGT RAIN  39  36  89 N10       30.12S FOG
ST INIGOES     LGT RAIN  40  37  89 N7        30.10F FOG
LEONARDTOWN*   CLOUDY    36  36 100 N5        30.15S

$$

MDZ003>005-230200-
NORTH CENTRAL MARYLAND

CITY           SKY/WX    TMP DP  RH WIND       PRES   REMARKS
FREDERICK*     RAIN      34  32  93 CALM      30.21S
HAGERSTOWN APT FRZ RAIN  33  31  92 N6        30.16F FOG
WESTMINSTER*   MIX PCPN  32  30  93 N5        30.14F

$$

MDZ501>502-230200-
WESTERN MARYLAND

CITY           SKY/WX    TMP DP  RH WIND       PRES   REMARKS
OAKLAND*       FOG       28 N/A N/A SE12G17   29.97S VSB 1/4 WCI  18
CUMBERLAND*    CLOUDY    32  32 100 CALM      30.18F

$$

VAZ025>031-230200-
SHENANDOAH VALLEY

CITY           SKY/WX    TMP DP  RH WIND       PRES   REMARKS
WINCHESTER*    CLOUDY    32  30  93 CALM      30.16R FOG
FRONT ROYAL*   CLOUDY    32  32 100 CALM      30.15R
LURAY*         CLOUDY    34  34 100 CALM      30.13S FOG
NEW MARKET*    CLOUDY    32  31  96 CALM      30.13S
STAUNTON*      DRIZZLE   33  32  95 N3        30.13S
WAYNESBORO*    CLOUDY    32  32  99 N5        30.10S

$$

WVZ021-048>050-054>055-230200-
EASTERN WEST VIRGINIA PANHANDLE

CITY           SKY/WX    TMP DP  RH WIND       PRES   REMARKS
MARTINSBURG    CLOUDY    33  29  85 N6        30.16S FOG
PETERSBURG*    CLOUDY    32  32 100 CALM      30.14S FOG

$$

VAZ036>039-050-230200-
CENTRAL FOOTHILLS

CITY           SKY/WX    TMP DP  RH WIND       PRES   REMARKS
CHARLOTTESVILL CLOUDY    35  33  92 CALM      30.12S FOG
CULPEPER*      RAIN      36  34  93 CALM      30.16R
ORANGE*        CLOUDY    34  34 100 N7        30.14S
GORDONSVILLE*  CLOUDY    34  33  95 NE6       30.12F
WARRENTON*     CLOUDY    35  35 100 N6        30.14S FOG

$$

VAZ055>057-230200-
NORTH AND CENTRAL PIEDMONT

CITY           SKY/WX    TMP DP  RH WIND       PRES   REMARKS
FREDERICKSBRG* CLOUDY    36  36 100 N3        30.15S
STAFFORD*      CLOUDY    34  34 100 N6        30.19S

$$

NCZ024-NYZ072-PAZ021-071-VAZ022-071-230200-
OTHER REGIONAL OBSERVATIONS

CITY           SKY/WX    TMP DP  RH WIND       PRES   REMARKS
NEW YORK CITY  CLOUDY    44  39  82 E6        30.25R
PHILADELPHIA   LGT RAIN  41  37  86 NE9       30.19S FOG
PITTSBURGH     CLOUDY    39  30  70 E10       29.95F
ROANOKE        DRIZZLE   36  34  92 NE6       30.11S FOG
RICHMOND       LGT RAIN  37  34  89 N12       30.09F FOG
RALEIGH        DRIZZLE   37  35  92 N6        30.09R FOG

$$

ANZ530>537-230200-
MARINE OBSERVATIONS

STATION/POSITION TIME  TEMP    WIND        PRES
                       AIR SEA DIR/SP/G
                 (UTC) (F)     (DEG/KT/KT) (MB)
THOMAS PT LIGHT  0100   38 40  350/ 10/ 11 1022.2R
BALT KEY BRIDGE  0100   37     350/  7/  9 1020.8F
COVE POINT       0100   38      10/ 10/ 13 1020.0F
LEWISETTA        0100   40 41  360/  9/ 13 1018.9F
SOLOMONS ISLAND  0100      42                N/A
PINEY POINT      0100          340/  8/  9   N/A

$$




USA.gov is the U.S. government's official web portal to all federal, state and local government web resources and services.